Hourly Data Report for October 09, 2016

All times are specified in Local Standard Time (LST). Add 1 hour to adjust for Daylight Saving Time where and when it is observed.

OTTAWA INTL A
ONTARIO

45°19'00.000" N
75°40'00.000" W
114.90 m
6106001
71628
YOW

Download Data

Hourly Data (October 2016)
Hourly Data Report for October 9, 2016
Temp Definition
°C
Dew Point Temp Definition
°C
Rel Hum Definition
%
Wind Dir Definition
10's deg

Wind Spd Definition
km/h
Visibility Definition
km
Stn Press Definition
kPa
Hmdx Definition


Wind Chill Definition


Weather Definition


TIME
00:00 Legend Double Dagger 8.5 6.6 88 27 14 24.1 100.46     LegendNANA
01:00 Legend Double Dagger 7.3 5.8 90 26 13 24.1 100.50     Mainly Clear
02:00 Legend Double Dagger 5.5 5.1 97 25 12 24.1 100.56     LegendNANA
03:00 Legend Double Dagger 5.2 4.6 96 26 9 24.1 100.63     LegendNANA
04:00 Legend Double Dagger 6.7 5.8 94 29 9 24.1 100.63     Mainly Clear
05:00 Legend Double Dagger 5.3 5.0 98 27 10 24.1 100.72     LegendNANA
06:00 Legend Double Dagger 4.5 4.4 99 26 9 24.1 100.78     LegendNANA
07:00 Legend Double Dagger 4.6 4.5 99 28 8 24.1 100.87     Mainly Clear
08:00 Legend Double Dagger 7.5 5.7 88 33 14 24.1 100.92     LegendNANA
09:00 Legend Double Dagger 9.2 4.2 71 35 21 24.1 100.95     LegendNANA
10:00 Legend Double Dagger 9.9 3.2 63 32 23 24.1 100.99     Mainly Clear
11:00 Legend Double Dagger 9.9 3.2 63 31 22 24.1 101.01     LegendNANA
12:00 Legend Double Dagger 11.1 2.5 55 31 22 24.1 101.01     LegendNANA
13:00 Legend Double Dagger 11.3 2.1 53 33 22 24.1 100.97     Mainly Clear
14:00 Legend Double Dagger 10.9 1.5 52 32 22 24.1 101.00     LegendNANA
15:00 Legend Double Dagger 9.8 1.0 54 35 20 24.1 101.02     LegendNANA
16:00 Legend Double Dagger 9.7 0.9 54 35 19 24.1 101.06     Mostly Cloudy
17:00 Legend Double Dagger 9.2 0.4 54 35 16 24.1 101.15     LegendNANA
18:00 Legend Double Dagger 9.1 0.8 56 36 13 24.1 101.19     LegendNANA
19:00 Legend Double Dagger 7.6 0.6 61 34 10 24.1 101.23     Clear
20:00 Legend Double Dagger 6.2 1.5 72 32 13 24.1 101.26     LegendNANA
21:00 Legend Double Dagger 5.8 1.2 72 33 17 24.1 101.30     LegendNANA
22:00 Legend Double Dagger 5.1 0.5 72 33 14 24.1 101.32     Clear
23:00 Legend Double Dagger 2.2 -0.4 83 30 13 24.1 101.35     LegendNANA

Notes on Data Quality.

Legend

  • E = Estimated
  • M = Missing
  • NA = Not Available
  • ‡ = Partner data that is not subject to review by the National Climate Archives
Date modified: